Skip Page Navigation
NASA JPL Caltech
NASA Logo - Jet Propulsion Laboratory + View the NASA Portal
+ Center for Near-Earth Object Studies
JPL Home Earth Solar System Stars & Galaxies Technology
JPL Solar System Dynamics
BODIES ORBITS EPHEMERIDES TOOLS PHYSICAL DATA DISCOVERY FAQ SITE MAP
IMPORTANT: The SSD Announcement email list is now available. Major changes are coming in the near future, including possible hostname and/or URL changes. To be notified of such changes, subscribe to this email list.

Please visit this page for more details.


JPL Small-Body Database Browser
Search: [ help ]  
13719 (1998 QU45)
Classification: Main-belt Asteroid          SPK-ID: 2013719
Ephemeris | Orbit Diagram | Orbital Elements | Mission Design | Physical Parameters | Discovery Circumstances | Close-Approach Data ]

[ show orbit diagram ]
Orbital Elements at Epoch 2459000.5 (2020-May-31.0) TDB
Reference: JPL 30 (heliocentric ecliptic J2000)
 Element Value Uncertainty (1-sigma)   Units 
e .1149457147965779 3.156e-08  
a 2.154416493393833 6.6624e-09 au
q 1.906775549591142 6.6898e-08 au
i 5.131080290403022 4.2889e-06 deg
node 198.9925143460844 3.2157e-05 deg
peri 97.68910426020999 3.8457e-05 deg
M 354.7235824987635 2.272e-05 deg
tp 2459017.428932606781
(2020-Jun-16.92893261)
7.2921e-05 TDB
period 1155.029096354317
3.16
5.3578e-06
1.467e-08
d
yr
n .3116804599436397 1.4458e-09 deg/d
Q 2.402057437196524 7.4282e-09 au
  Orbit Determination Parameters
   # obs. used (total)      1774  
   data-arc span      10612 days (29.05 yr)  
   first obs. used      1991-04-08  
   last obs. used      2020-04-27  
   planetary ephem.      DE431  
   SB-pert. ephem.      SB431-N16  
   condition code      0  
   norm. resid. RMS      .5038  
   source      ORB  
   producer      Otto Matic  
   solution date      2020-May-20 03:54:52  

Additional Information
 Earth MOID = .899405 au 
 Jupiter MOID = 2.75649 au 
 T_jup = 3.688 
[ show covariance matrix ]

Ephemeris | Orbit Diagram | Orbital Elements | Mission Design | Physical Parameters | Discovery Circumstances | Close-Approach Data ]

Physical Parameter Table
Parameter Symbol Value Units Sigma Reference Notes
absolute magnitude H 15.0   n/a MPO473953  
diameter diameter 2.752 km 0.073 urn:nasa:pds:neowise_diameters_albedos::2.0[mainbelt] (http://adsabs.harvard.edu/abs/2011ApJ...741...68M)  
geometric albedo albedo 0.233   0.023 urn:nasa:pds:neowise_diameters_albedos::2.0[mainbelt] (http://adsabs.harvard.edu/abs/2011ApJ...741...68M)  

13719 (1998 QU45)          Discovered 1998-Aug-17 by LINEAR at Socorro
Reference: 20000222/Numbers.arcLast Updated: 2004-04-19

[ show close-approach data ]
Alternate Designations
 1998 QU45 = 1991 GB4 = 1997 EZ40 
Ephemeris | Orbit Diagram | Orbital Elements | Mission Design | Physical Parameters | Discovery Circumstances | Close-Approach Data ]
ABOUT SSD CREDITS/AWARDS PRIVACY/COPYRIGHT GLOSSARY LINKS
FirstGov 2020-Jun-01 23:14 UT
(server date/time)  
NASA Home Page
Site Manager:   Ryan S. Park
Webmaster  Alan B. Chamberlin